Chrysopouli, Greece

4:15 AM EEST on May 26, 2017 (GMT +0300)
Megas Alexandros

Weather History for LGKV - October, 2012

Change the Weather History Date:

Sunday, October 7, 2012

  Actual Average Record
Temperature  
Mean Temperature 68 °F -  
Max Temperature 78 °F 70 °F 78 °F (2012)
Min Temperature 57 °F 55 °F 46 °F (2013)
Cooling Degree Days 2    
Growing Degree Days 18 (Base 50)    
Moisture  
Dew Point 62 °F    
Average Humidity 71    
Maximum Humidity 94    
Minimum Humidity 54    
Precipitation  
Precipitation 0.00 in - - ()
Sea Level Pressure  
Sea Level Pressure 29.93 in    
Wind  
Wind Speed 4 mph ()    
Max Wind Speed 9 mph    
Max Gust Speed -    
Visibility 6.2 miles    
Events      
Averages and records for this station are not official NWS values.
T = Trace of Precipitation, MM = Missing Value Source: Averaged Metar Reports

Daily Weather History Graph

Daily Weather History Graph

Search for Another Location

Airport or City:

Trip Planner

Search our weather history database for the weather conditions in past years. The results will help you decide how hot, cold, wet, or windy it might be!

Date:

Astronomy

Oct. 07, 2012 Rise Set
Actual Time 7:24 AM EEST 6:53 PM EEST
Civil Twilight 6:57 AM EEST 7:20 PM EEST
Nautical Twilight 6:25 AM EEST 7:52 PM EEST
Astronomical Twilight 5:53 AM EEST 8:24 PM EEST
Moon 11:45 PM EEST (10/7) 1:50 PM EEST (10/7)
Length of Visible Light 12h 23m
Length of Day
11h 28m
Waning Gibbous, 59% of the Moon is Illuminated
Oct 7
Waning Gibbous
Oct 8
Last Quarter
Oct 15
New
Oct 22
First Quarter
Oct 29
Full

Hourly Weather History & Observations

Time (EEST) Temp. Dew Point Humidity Pressure Visibility Wind Dir Wind Speed Gust Speed Precip Events Conditions
7:50 AM 57.2 °F 51.8 °F 82% 30.01 in - Calm Calm - N/A   Clear
8:20 AM 57.2 °F 51.8 °F 82% 30.01 in - Calm Calm - N/A   Clear
8:50 AM 60.8 °F 55.4 °F 82% 30.01 in - Calm Calm - N/A   Clear
9:20 AM 62.6 °F 55.4 °F 77% 30.01 in - Calm Calm - N/A   Clear
9:50 AM 68.0 °F 59.0 °F 73% 30.01 in - Calm Calm - N/A   Clear
10:20 AM 71.6 °F 60.8 °F 69% 30.01 in - Calm Calm - N/A   Clear
10:50 AM 73.4 °F 60.8 °F 65% 30.01 in - Variable 3.5 mph - N/A   Clear
11:20 AM 75.2 °F 60.8 °F 61% 30.01 in - South 5.8 mph - N/A   Clear
11:50 AM 77.0 °F 59.0 °F 54% 30.01 in 6.2 mi SSW 6.9 mph - N/A   Partly Cloudy
12:20 PM 77.0 °F 59.0 °F 54% 29.98 in 6.2 mi SSW 5.8 mph - N/A   Partly Cloudy
12:50 PM 75.2 °F 62.6 °F 65% 29.98 in 6.2 mi SW 6.9 mph - N/A   Partly Cloudy
1:20 PM 75.2 °F 62.6 °F 65% 29.98 in 6.2 mi SW 8.1 mph - N/A   Partly Cloudy
1:50 PM 77.0 °F 62.6 °F 61% 29.95 in 6.2 mi SW 8.1 mph - N/A   Partly Cloudy
2:20 PM 77.0 °F 62.6 °F 61% 29.95 in 6.2 mi SSW 8.1 mph - N/A   Partly Cloudy
2:50 PM 78.8 °F 62.6 °F 57% 29.92 in 6.2 mi SSW 8.1 mph - N/A   Partly Cloudy
3:20 PM 78.8 °F 62.6 °F 57% 29.92 in 6.2 mi SSW 8.1 mph - N/A   Partly Cloudy
3:50 PM 77.0 °F 64.4 °F 65% 29.92 in 6.2 mi SSW 8.1 mph - N/A   Partly Cloudy
4:20 PM 77.0 °F 64.4 °F 65% 29.89 in 6.2 mi SW 8.1 mph - N/A   Partly Cloudy
4:50 PM 77.0 °F 64.4 °F 65% 29.89 in - SW 9.2 mph - N/A   Clear
5:20 PM 77.0 °F 64.4 °F 65% 29.86 in - SW 9.2 mph - N/A   Clear
5:50 PM 75.2 °F 66.2 °F 73% 29.86 in - WSW 9.2 mph - N/A   Clear
6:20 PM 75.2 °F 66.2 °F 73% 29.86 in - SW 8.1 mph - N/A   Clear
6:50 PM 73.4 °F 66.2 °F 78% 29.86 in - WSW 8.1 mph - N/A   Clear
7:20 PM 71.6 °F 66.2 °F 83% 29.86 in - West 6.9 mph - N/A   Clear
7:50 PM 71.6 °F 66.2 °F 83% 29.86 in - WSW 5.8 mph - N/A   Clear
8:20 PM 69.8 °F 66.2 °F 88% 29.86 in - WSW 5.8 mph - N/A   Clear
8:50 PM 71.6 °F 64.4 °F 78% 29.86 in - WSW 8.1 mph - N/A   Clear
9:20 PM 71.6 °F 64.4 °F 78% 29.83 in - West 5.8 mph - N/A   Clear
9:50 PM 68.0 °F 64.4 °F 88% 29.86 in - WNW 5.8 mph - N/A   Clear
10:20 PM 66.2 °F 64.4 °F 94% 29.86 in - Calm Calm - N/A   Clear